TimeMDT,TemperatureF,Dew PointF,Humidity,Sea Level PressureIn,VisibilityMPH,Wind Direction,Wind SpeedMPH,Gust SpeedMPH,PrecipitationIn,Events,Conditions,WindDirDegrees,DateUTC
12:15 AM,28.4,28.4,100,29.72,10.0,North,4.6,-,N/A,,Mostly Cloudy,360,2013-04-08 06:15:00
12:35 AM,26.6,26.6,100,29.71,10.0,Calm,Calm,-,N/A,,Mostly Cloudy,0,2013-04-08 06:35:00
12:55 AM,26.6,26.6,100,29.71,0.5,SW,4.6,-,N/A,Fog,Light Freezing Fog,230,2013-04-08 06:55:00
1:15 AM,23.0,23.0,100,29.69,0.2,WNW,3.5,-,N/A,Fog,Light Freezing Fog,290,2013-04-08 07:15:00
1:35 AM,23.0,23.0,100,29.69,0.5,Calm,Calm,-,N/A,Fog,Light Freezing Fog,0,2013-04-08 07:35:00
1:55 AM,21.2,21.2,100,29.67,1.0,Calm,Calm,-,N/A,,Mostly Cloudy,0,2013-04-08 07:55:00
2:15 AM,23.0,23.0,100,29.67,4.0,Calm,Calm,-,N/A,,Scattered Clouds,0,2013-04-08 08:15:00
2:35 AM,23.0,23.0,100,29.67,10.0,West,4.6,-,N/A,,Overcast,260,2013-04-08 08:35:00
2:55 AM,24.8,24.8,100,29.66,10.0,North,3.5,-,N/A,,Overcast,360,2013-04-08 08:55:00
3:15 AM,26.6,26.6,100,29.64,10.0,North,5.8,-,N/A,,Overcast,350,2013-04-08 09:15:00
3:35 AM,24.8,24.8,100,29.65,10.0,NW,5.8,-,N/A,,Overcast,320,2013-04-08 09:35:00
3:55 AM,26.6,26.6,100,29.64,10.0,West,3.5,-,N/A,,Overcast,260,2013-04-08 09:55:00
4:15 AM,26.6,26.6,100,29.63,10.0,NW,3.5,-,N/A,,Overcast,310,2013-04-08 10:15:00
4:35 AM,24.8,24.8,100,29.63,10.0,West,3.5,-,N/A,,Overcast,260,2013-04-08 10:35:00
4:55 AM,26.6,26.6,100,29.63,10.0,West,3.5,-,N/A,,Overcast,270,2013-04-08 10:55:00
5:15 AM,26.6,26.6,100,29.62,10.0,Calm,Calm,-,N/A,,Overcast,0,2013-04-08 11:15:00
5:35 AM,26.6,26.6,100,29.62,10.0,WNW,3.5,-,N/A,,Overcast,300,2013-04-08 11:35:00
5:55 AM,26.6,26.6,100,29.61,10.0,WNW,6.9,-,N/A,,Overcast,290,2013-04-08 11:55:00
6:15 AM,26.6,26.6,100,29.61,10.0,West,6.9,-,N/A,,Overcast,270,2013-04-08 12:15:00
6:35 AM,26.6,26.6,100,29.60,10.0,WNW,5.8,-,N/A,,Overcast,290,2013-04-08 12:35:00
6:55 AM,28.4,28.4,100,29.60,10.0,West,6.9,-,N/A,,Overcast,280,2013-04-08 12:55:00
7:15 AM,28.4,28.4,100,29.61,10.0,West,5.8,-,N/A,,Overcast,270,2013-04-08 13:15:00
7:35 AM,30.2,28.4,93,29.61,10.0,East,3.5,-,N/A,,Overcast,100,2013-04-08 13:35:00
7:55 AM,30.2,28.4,93,29.61,10.0,East,4.6,-,N/A,,Overcast,90,2013-04-08 13:55:00
8:15 AM,30.2,30.2,100,29.62,2.0,ESE,4.6,-,N/A,Snow,Light Snow,110,2013-04-08 14:15:00
8:35 AM,28.4,28.4,100,29.62,3.0,ESE,6.9,-,N/A,Snow,Light Snow,120,2013-04-08 14:35:00
8:55 AM,28.4,28.4,100,29.62,3.0,SE,3.5,-,N/A,Snow,Light Snow,130,2013-04-08 14:55:00
9:15 AM,28.4,28.4,100,29.62,3.0,Calm,Calm,-,N/A,,Overcast,0,2013-04-08 15:15:00
9:35 AM,28.4,28.4,100,29.62,0.8,Calm,Calm,-,N/A,Snow,Light Snow,0,2013-04-08 15:35:00
9:55 AM,30.2,30.2,100,29.61,0.5,Calm,Calm,-,N/A,Snow,Snow,0,2013-04-08 15:55:00
10:15 AM,30.2,30.2,100,29.61,0.5,NNE,3.5,-,N/A,Snow,Snow,30,2013-04-08 16:15:00
10:35 AM,32.0,32.0,100,29.59,1.0,NE,5.8,-,N/A,Snow,Light Snow,50,2013-04-08 16:35:00
10:55 AM,32.0,32.0,100,29.59,0.5,NE,4.6,-,N/A,Snow,Snow,40,2013-04-08 16:55:00
11:15 AM,32.0,32.0,100,29.58,0.5,NNE,5.8,-,N/A,Snow,Snow,30,2013-04-08 17:15:00
11:35 AM,32.0,32.0,100,29.58,0.5,NE,11.5,16.1,N/A,Snow,Light Snow,50,2013-04-08 17:35:00
11:55 AM,32.0,32.0,100,29.57,0.8,NE,11.5,-,N/A,Snow,Light Snow,50,2013-04-08 17:55:00
12:15 PM,32.0,30.2,93,29.55,2.5,North,4.6,-,N/A,Snow,Light Snow,360,2013-04-08 18:15:00
12:35 PM,32.0,30.2,93,29.53,5.0,NNW,5.8,-,N/A,Snow,Light Snow,330,2013-04-08 18:35:00
12:55 PM,35.6,28.4,75,29.51,10.0,NE,10.4,-,N/A,,Overcast,50,2013-04-08 18:55:00
1:15 PM,37.4,28.4,70,29.49,10.0,NE,13.8,19.6,N/A,,Overcast,50,2013-04-08 19:15:00
1:35 PM,39.2,26.6,61,29.48,10.0,NE,10.4,16.1,N/A,,Overcast,40,2013-04-08 19:35:00
1:55 PM,39.2,26.6,61,29.49,10.0,ENE,12.7,18.4,N/A,,Overcast,60,2013-04-08 19:55:00
2:15 PM,37.4,26.6,65,29.50,10.0,ENE,8.1,20.7,N/A,,Overcast,60,2013-04-08 20:15:00
2:35 PM,37.4,28.4,70,29.51,10.0,Calm,Calm,-,N/A,,Overcast,0,2013-04-08 20:35:00
2:55 PM,41.0,28.4,61,29.51,10.0,East,5.8,-,N/A,,Overcast,80,2013-04-08 20:55:00
3:15 PM,39.2,24.8,56,29.50,10.0,NNE,10.4,16.1,N/A,,Overcast,30,2013-04-08 21:15:00
3:35 PM,41.0,26.6,57,29.49,10.0,NE,12.7,18.4,N/A,,Scattered Clouds,40,2013-04-08 21:35:00
3:55 PM,42.8,28.4,57,29.48,10.0,NE,16.1,19.6,N/A,,Mostly Cloudy,50,2013-04-08 21:55:00
4:15 PM,41.0,26.6,57,29.48,10.0,NE,19.6,28.8,N/A,,Overcast,50,2013-04-08 22:15:00
4:35 PM,39.2,24.8,56,29.48,10.0,NE,21.9,27.6,N/A,,Overcast,50,2013-04-08 22:35:00
4:55 PM,37.4,23.0,56,29.49,10.0,NE,20.7,28.8,N/A,,Overcast,40,2013-04-08 22:55:00
5:15 PM,37.4,21.2,52,29.50,10.0,NE,24.2,31.1,N/A,,Overcast,40,2013-04-08 23:15:00
5:35 PM,35.6,21.2,56,29.51,10.0,ENE,23.0,29.9,N/A,,Overcast,60,2013-04-08 23:35:00
5:55 PM,33.8,19.4,56,29.53,10.0,NE,15.0,24.2,N/A,,Overcast,50,2013-04-08 23:55:00
6:15 PM,33.8,19.4,56,29.53,10.0,NE,17.3,25.3,N/A,,Overcast,40,2013-04-09 00:15:00
6:35 PM,33.8,17.6,52,29.53,10.0,NE,19.6,29.9,N/A,,Overcast,40,2013-04-09 00:35:00
6:55 PM,32.0,17.6,55,29.54,10.0,NE,16.1,26.5,N/A,,Mostly Cloudy,50,2013-04-09 00:55:00
7:15 PM,32.0,15.8,51,29.54,10.0,NE,19.6,29.9,N/A,,Overcast,50,2013-04-09 01:15:00
7:35 PM,30.2,19.4,64,29.54,10.0,NE,31.1,38.0,N/A,,Overcast,50,2013-04-09 01:35:00
7:55 PM,30.2,19.4,64,29.55,10.0,NE,25.3,29.9,N/A,,Overcast,40,2013-04-09 01:55:00
8:15 PM,30.2,14.0,51,29.58,10.0,NE,15.0,25.3,N/A,,Overcast,40,2013-04-09 02:15:00
8:35 PM,30.2,15.8,55,29.59,10.0,NNE,21.9,28.8,N/A,,Overcast,30,2013-04-09 02:35:00
8:55 PM,30.2,14.0,51,29.59,10.0,NNE,19.6,26.5,N/A,,Overcast,30,2013-04-09 02:55:00
9:15 PM,30.2,15.8,55,29.59,10.0,NNE,26.5,31.1,N/A,,Overcast,20,2013-04-09 03:15:00
9:35 PM,30.2,14.0,51,29.59,10.0,NNE,21.9,27.6,N/A,,Overcast,30,2013-04-09 03:35:00
9:55 PM,30.2,12.2,47,29.61,10.0,NE,16.1,24.2,N/A,,Overcast,40,2013-04-09 03:55:00
10:15 PM,28.4,14.0,55,29.62,10.0,NE,19.6,26.5,N/A,,Overcast,40,2013-04-09 04:15:00
10:35 PM,28.4,15.8,59,29.64,10.0,NE,19.6,26.5,N/A,,Overcast,50,2013-04-09 04:35:00
10:55 PM,23.0,21.2,93,29.65,2.0,NNE,20.7,26.5,N/A,Snow,Light Snow,30,2013-04-09 04:55:00
11:15 PM,26.6,17.6,69,29.65,10.0,NE,10.4,-,N/A,,Overcast,40,2013-04-09 05:15:00
11:35 PM,26.6,14.0,59,29.66,10.0,ENE,6.9,12.7,N/A,,Overcast,70,2013-04-09 05:35:00
11:55 PM,28.4,14.0,55,29.67,10.0,ENE,5.8,-,N/A,,Overcast,70,2013-04-09 05:55:00